Preview of NWS' New Version of Forecast
This preview is not operational and should not be used for support decisions.

Regional Weather Roundup (RWR)

Issued by National Weather Service (NWS)

                            
000
ASUS44 KMEG 191110
RWRTN 
TENNESSEE HOURLY STATE WEATHER ROUNDUP
NATIONAL WEATHER SERVICE MEMPHIS TN
600 AM CDT FRI APR 19 2019

TNZ002-004-019-021-049-052-054-088>092-191200-
WEST TENNESSEE
  
CITY           SKY/WX    TMP DP  RH WIND       PRES   REMARKS
MEMPHIS INTL   LGT RAIN  48  47  96 NW17G23   29.68R FOG              
NWS MEMPHIS      N/A     47 N/A N/A MISG        N/A                   
JACKSON        LGT RAIN  47  45  93 NW16      29.63R FOG              
DYERSBURG      LGT RAIN  47  44  90 NW12      29.67R                  
SOMERVILLE     CLOUDY    48  46  93 NW12G17   29.64R FOG              
COVINGTON      CLOUDY    46  46 100 N15G22    29.67R FOG              
UNION CITY     CLOUDY    48  46  93 N15G23    29.63R                  
BOLIVAR        CLOUDY    46  46 100 NW9G17    29.62R FOG              
PARIS          CLOUDY    46  45  93 NW9G16    29.59R FOG              
HUNTINGDON     CLOUDY    46  46 100 N7G14     29.59R FOG              
LEXINGTON      CLOUDY    48  46  93 NW10      29.57R FOG              
SELMER         CLOUDY    46  45  93 N8G16     29.58R FOG              
SAVANNAH       CLOUDY    48  46  93 NW14G22   29.58R FOG              
$$

TNZ008-025-027-028-033-062-065-066-191200-
NORTH MIDDLE TENNESSEE
  
CITY           SKY/WX    TMP DP  RH WIND       PRES   REMARKS
NASHVILLE      CLOUDY    52  49  89 N12       29.50R FOG              
DICKSON        CLOUDY    46  46 100 N10G18    29.52R FOG              
PORTLAND       CLOUDY    50  50 100 N10       29.49F                  
CLARKSVILLE    LGT RAIN  48  45  89 N14       29.55R FOG              
LEBANON        CLOUDY    59  57  94 CALM      29.46S                  
SMYRNA         CLOUDY    55  54  96 NW13G20   29.49R                  
MURFREESBORO   CLOUDY    59  59 100 CALM      29.46S                  
COOKEVILLE     CLOUDY    61  59  94 CALM      29.48F                  
LIVINGSTON     CLOUDY    59  59 100 CALM      29.48F                  
GALLATIN       CLOUDY    54  52  94 NW8       29.51S FOG              
CROSSVILLE     CLOUDY    58  57  97 CALM      29.51F                  
ROCKWOOD       CLOUDY    59  59 100 VRB3      29.50F FOG              
$$

TNZ061-075-076-078-094-096-097-191200-
SOUTH MIDDLE TENNESSEE
  
CITY           SKY/WX    TMP DP  RH WIND       PRES   REMARKS
LAWRENCEBURG   CLOUDY    54  52  94 W9G17     29.49R FOG              
LEWISBURG      CLOUDY    59  59 100 CALM      29.47R                  
FAYETTEVILLE   CLOUDY    59  59 100 SW12      29.47S FOG              
TULLAHOMA      CLOUDY    61  59  94 SW6       29.47S                  
WINCHESTER     MOCLDY    61  59  94 CALM      29.47S FOG              
MCMINNVILLE    CLOUDY    61  59  94 SW3       29.48S FOG              
COLUMBIA       CLOUDY    52  52 100 NW9G17    29.48R FOG              
SHELBYVILLE    CLOUDY    61  59  94 CALM      29.47S FOG              
$$

TNZ017-018-042-046-047-191200-
NORTHEAST TENNESSEE
  
CITY           SKY/WX    TMP DP  RH WIND       PRES   REMARKS
TRI CITIES     HVY RAIN  60  58  92 NW6       29.65R FOG              
ELIZABETHTON   DRIZZLE   63  61  94 CALM      29.65R                  
GREENEVILLE    CLOUDY    59  59 100 N5        29.62F FOG              
$$

TNZ012-013-036-069-073-074-191200-
CENTRAL EAST TENNESSEE
  
CITY           SKY/WX    TMP DP  RH WIND       PRES   REMARKS
KNOXVILLE      HVY RAIN  61  59  93 NW13      29.51F                  
OAK RIDGE      RAIN      62  59  90 N3        29.51  FOG              
DOWNTOWN KNOXV   N/A     61  61 100 CALM      29.52                   
GATLINBURG     CLOUDY    61  59  94 VRB5G13   29.54F                  
MORRISTOWN     CLOUDY    59  59 100 SE17G28   29.53F FOG              
JACKSBORO      CLOUDY    61  59  94 NE6       29.54F FOG              
$$

TNZ083-085-099-191200-
SOUTHEAST TENNESSEE
  
CITY           SKY/WX    TMP DP  RH WIND       PRES   REMARKS
CHATTANOOGA    MOCLDY    62  60  93 E7        29.48F                  
DAYTON         CLOUDY    61  61 100 CALM      29.48F                  
$$

SKY/WX REPORTED AS FAIR MEANS FEW OR NO CLOUDS BELOW
12 THOUSAND FEET.